Home > Weather > Port St. Lucie > Past weeks

Flag for U.S.A. Weather for the Past 2 Weeks in Port St. Lucie, Florida, U.S.A.

Now
64 °F

Mild.


Feels Like: 64 °F
Forecast: 51 / 67 °F
Wind: 5 mph from North

Location: Witham Field Airport

Current Time: Feb 13, 2016 at 8:58:59 PM

Latest Report: Feb 13, 2016 at 8:35 PM


Visibility: 10 mi

Pressure: 30.23 "Hg

Humidity: 52%

Dew point: 46 °F

Location of Port St. LucieLocation

Historic Weather in Port St. Lucie — Graph

°F

Port St. Lucie Temperature Yesterday

Maximum temperature yesterday: 75 °F (at 1:47 PM)
Minimum temperature yesterday: 45 °F (at 3:35 AM)
Average temperature yesterday: 58 °F

High & Low Weather Summary for the Past Weeks

 TemperatureHumidityPressure
High84 °F (Feb 4, 12:47 PM)100% (Jan 31, 1:35 AM)30.37 "Hg (Jan 31, 1:35 AM)
Low43 °F (Feb 8, 4:55 AM)18% (Feb 8, 11:47 AM)29.91 "Hg (Feb 9, 2:55 AM)
Average62 °F67%30.12 "Hg
* Reported Jan 29 7:35 PM — Feb 13 7:35 PM, Port St. Lucie, Weather by CustomWeather, © 2016

Note: Actual official high and low records may vary slightly from our data, if they occured in-between our weather recording intervals... More about our weather records

Advertising

Port St. Lucie Weather History for the Previous 24 Hours

 ConditionsComfort  
Time TempWeatherWind HumidityBarometerVisibility
7:35 PM
Sat, Feb 13
64 °FMild.8 mph52%30.23 "Hg10 mi
7:15 PM64 °FMild.5 mph52%30.22 "Hg10 mi
6:55 PM63 °FMild.7 mph56%30.21 "Hg10 mi
6:35 PM64 °FMild.8 mph56%30.21 "Hg10 mi
6:15 PM64 °FMild.8 mph60%30.21 "Hg10 mi
5:47 PM66 °FSunny.9 mph56%30.21 "Hg7 mi
3:47 PM72 °FPassing clouds.13 mph41%30.19 "Hg7 mi
2:47 PM72 °FPassing clouds.12 mph41%30.18 "Hg7 mi
1:47 PM72 °FPassing clouds.9 mph36%30.19 "Hg7 mi
12:47 PM72 °FPassing clouds.9 mph29%30.22 "Hg7 mi
10:47 AM70 °FSunny.9 mph46%30.26 "Hg7 mi
9:47 AM68 °FPassing clouds.9 mph60%30.26 "Hg7 mi
8:47 AM64 °FSunny.9 mph73%30.25 "Hg7 mi
7:47 AM57 °FSunny.6 mph82%30.23 "Hg7 mi
6:47 AM57 °FClear.6 mph77%30.22 "Hg7 mi
6:15 AM55 °FCool.5 mph82%30.21 "Hg10 mi
5:55 AM55 °FCool.6 mph82%30.20 "Hg10 mi
5:35 AM55 °FCool.6 mph82%30.19 "Hg10 mi
5:15 AM55 °FCool.7 mph82%30.19 "Hg10 mi
4:55 AM55 °FCool.7 mph77%30.19 "Hg10 mi
4:35 AM54 °FCool.6 mph82%30.18 "Hg10 mi
4:15 AM54 °FCool.5 mph77%30.19 "Hg10 mi
3:55 AM54 °FCool.3 mph82%30.19 "Hg10 mi
3:15 AM54 °FCool.5 mph77%30.19 "Hg10 mi
2:55 AM54 °FCool.3 mph77%30.19 "Hg10 mi
2:35 AM55 °FCool.3 mph72%30.20 "Hg10 mi
2:15 AM55 °FCool.5 mph72%30.20 "Hg10 mi
1:55 AM55 °FCool.3 mph72%30.21 "Hg10 mi
1:35 AM55 °FCool.5 mph72%30.21 "Hg10 mi
1:15 AM55 °FCool.5 mph72%30.21 "Hg10 mi
12:55 AM55 °FCool.5 mph72%30.21 "Hg10 mi
12:35 AM55 °FCool.6 mph72%30.21 "Hg10 mi
12:15 AM57 °FCool.6 mph63%30.21 "Hg10 mi
11:55 PM
Fri, Feb 12
59 °FRefreshingly cool.6 mph59%30.22 "Hg10 mi
11:35 PM59 °FRefreshingly cool.5 mph55%30.22 "Hg10 mi
11:15 PM61 °FRefreshingly cool.5 mph52%30.22 "Hg10 mi
10:55 PM59 °FRefreshingly cool.6 mph55%30.22 "Hg10 mi
10:35 PM59 °FRefreshingly cool.7 mph55%30.23 "Hg10 mi
10:15 PM61 °FRefreshingly cool.6 mph48%30.23 "Hg10 mi
9:35 PM61 °FRefreshingly cool.3 mph42%30.22 "Hg10 mi
9:15 PM61 °FRefreshingly cool.No wind39%30.22 "Hg10 mi
8:35 PM63 °FMild.3 mph37%30.22 "Hg10 mi
Weather by CustomWeather, © 2016

See weather overviewHow to use our weather pages